Regional Weather Roundup
Issued by NWS Little Rock, AR

Home | Current Version | Previous Version | Graphics & Text | Print | Product List | Glossary On
Versions: 1 2 3 4 5 6 7 8 9 10 11 12 13 14 15 16 17 18 19 20 21 22 23 24 25 26 27 28 29 30 31 32 33 34 35 36 37 38 39 40 41 42 43 44 45 46 47 48 49 50
000
ASUS44 KLZK 201505
RWRLZK

WEATHER ROUNDUP FOR ARKANSAS
NATIONAL WEATHER SERVICE LITTLE ROCK AR
1000 AM CDT WED AUG 20 2014

NOTE: "FAIR" INDICATES FEW OR NO CLOUDS BELOW 12,000 FEET WITH NO
SIGNIFICANT WEATHER AND/OR OBSTRUCTIONS TO VISIBILITY.

ARZ001-003-010-029-201600-
NORTHWEST ARKANSAS

CITY           SKY/WX    TMP DP  RH WIND       PRES   REMARKS
FAYETTEVILLE   SUNNY     82  69  64 S13       30.01R HX  85
FORT SMITH     SUNNY     84  70  62 SW9       29.98R HX  88
HARRISON       SUNNY     83  70  64 SW10G17   30.02R HX  87
BENTONVILLE    SUNNY     82  70  65 SW13G18   30.02R HX  86
ROGERS         SUNNY     82  68  62 SW10      30.02R HX  85
SILOAM SPGS    SUNNY     81  66  61 SW15G21   30.01R
HIGHFILL       SUNNY     81  68  64 S15       30.00R
SPRINGDALE     SUNNY     82  70  65 SW14      30.03R HX  86
$$

ARZ004-005-016-201600-
NORTH CENTRAL ARKANSAS

CITY           SKY/WX    TMP DP  RH WIND       PRES   REMARKS
BATESVILLE     SUNNY     86  73  66 W3        30.00R HX  93
FLIPPIN        SUNNY     84  70  61 S5        29.99S HX  88
MTN HOME       SUNNY     84  71  65 SW7       29.99S HX  89
$$

ARZ040-041-201600-
WEST CENTRAL ARKANSAS

CITY           SKY/WX    TMP DP  RH WIND       PRES   REMARKS
MENA           SUNNY     82  73  74 SW7G16    30.04S HX  88
MOUNT IDA      SUNNY     81  71  71 MISG      30.01R HX  85
$$

ARZ009-017-025-026-028-201600-
NORTHEAST ARKANSAS

CITY           SKY/WX    TMP DP  RH WIND       PRES   REMARKS
CORNING        FAIR      86  75  70 SW8       29.99R HX  95
JONESBORO      SUNNY     87  74  64 W10       29.99R HX  95
NEWPORT        SUNNY     89  76  65 SW6       30.01R HX 100
WALNUT RIDGE   SUNNY     84  73  70 SW8       29.98R HX  91
BLYTHEVILLE    SUNNY     85  78  80 SW9       30.00R HX  96
$$

ARZ022-023-033-042-044-201600-
CENTRAL ARKANSAS

CITY           SKY/WX    TMP DP  RH WIND       PRES   REMARKS
LITTLE ROCK    MOSUNNY   84  69  60 W12       30.02R HX  88
N LITTLE ROCK  MOSUNNY   83  73  72 SW7       30.02R HX  89
JACKSONVILLE   SUNNY     84  73  68 SW8       30.02R HX  90
SEARCY           N/A     87  73  62 CALM        N/A  HX  94
HOT SPRINGS    SUNNY     81  71  71 SW6       30.04R HX  85
RUSSELLVILLE   SUNNY     84  72  67 VRB5      30.00R HX  89
CLINTON        FAIR      86  75  70 W5        30.01R HX  95
$$

ARZ036-201600-
EAST ARKANSAS

CITY           SKY/WX    TMP DP  RH WIND       PRES   REMARKS
WEST MEMPHIS   SUNNY     84  77  79 VRB5      30.01R HX  94
$$

ARZ050-053-066-070-073-201600-
SOUTHWEST ARKANSAS

CITY           SKY/WX    TMP DP  RH WIND       PRES   REMARKS
ARKADELPHIA    FAIR      83  74  74 SW7       30.04R HX  89
CAMDEN         MOSUNNY   82  72  69 SW6       30.04S HX  87
TEXARKANA      MOSUNNY   79  74  84 SW9       30.04R
EL DORADO      SUNNY     82  75  79 SW7       30.05R HX  89
DE QUEEN       MOSUNNY   79  73  82 SW3       30.01S
$$

ARZ056-057-069-201600-
SOUTHEAST ARKANSAS

CITY           SKY/WX    TMP DP  RH WIND       PRES   REMARKS
PINE BLUFF     SUNNY     82  71  69 SW10      30.04R HX  86
STUTTGART      SUNNY     84  72  65 SW13      30.04R HX  89
MONTICELLO     SUNNY     83  70  64 SW7       30.05R HX  87

$$





USA.gov is the U.S. government's official web portal to all federal, state and local government web resources and services.